Location: Cave
(41.8160°N, 12.9350°E)
Time: 02:09:38
(UTC+01:00)

ISS - Pass Details

Date: 11 March 2019
Orbit: 408 x 411 km, 51.6° (Epoch: 24 March)

Event Time Altitude Azimuth Distance (km) Brightness Sun altitude
Exits shadow 04:10:53 16° 19° (NNE) 1,174 -1.1 -26.0°
Drops below altitude 10° 04:12:35 10° 50° (NE) 1,474 -0.1 -25.7°
Sets 04:15:15 0° 73° (ENE) 2,335 1.4 -25.2°
